TimeMDT,TemperatureF,Dew PointF,Humidity,Sea Level PressureIn,VisibilityMPH,Wind Direction,Wind SpeedMPH,Gust SpeedMPH,PrecipitationIn,Events,Conditions,WindDirDegrees,DateUTC
12:15 AM,39.2,33.8,81,30.18,10.0,East,3.5,-,N/A,,Clear,90,2013-09-24 06:15:00
12:35 AM,39.2,33.8,81,30.18,10.0,Calm,Calm,-,N/A,,Clear,0,2013-09-24 06:35:00
12:55 AM,37.4,32.0,81,30.18,10.0,Calm,Calm,-,N/A,,Clear,0,2013-09-24 06:55:00
1:35 AM,35.6,32.0,87,30.18,10.0,ESE,5.8,-,N/A,,Clear,120,2013-09-24 07:35:00
1:55 AM,35.6,32.0,87,30.18,10.0,Calm,Calm,-,N/A,,Clear,0,2013-09-24 07:55:00
2:15 AM,33.8,32.0,93,30.18,10.0,Calm,Calm,-,N/A,,Clear,0,2013-09-24 08:15:00
2:35 AM,35.6,32.0,87,30.18,10.0,SSE,3.5,-,N/A,,Clear,160,2013-09-24 08:35:00
2:55 AM,33.8,32.0,93,30.18,10.0,Calm,Calm,-,N/A,,Clear,0,2013-09-24 08:55:00
3:15 AM,33.8,32.0,93,30.17,10.0,Calm,Calm,-,N/A,,Clear,0,2013-09-24 09:15:00
3:35 AM,33.8,32.0,93,30.16,10.0,Calm,Calm,-,N/A,,Clear,0,2013-09-24 09:35:00
3:55 AM,33.8,32.0,93,30.17,10.0,Calm,Calm,-,N/A,,Clear,0,2013-09-24 09:55:00
4:15 AM,33.8,32.0,93,30.17,10.0,Calm,Calm,-,N/A,,Clear,0,2013-09-24 10:15:00
4:35 AM,33.8,32.0,93,30.16,10.0,Calm,Calm,-,N/A,,Clear,0,2013-09-24 10:35:00
4:55 AM,32.0,30.2,93,30.16,10.0,East,4.6,-,N/A,,Clear,100,2013-09-24 10:55:00
5:15 AM,32.0,32.0,100,30.16,10.0,ESE,3.5,-,N/A,,Clear,110,2013-09-24 11:15:00
5:35 AM,32.0,32.0,100,30.16,10.0,Calm,Calm,-,N/A,,Clear,0,2013-09-24 11:35:00
5:55 AM,33.8,32.0,93,30.16,10.0,Calm,Calm,-,N/A,,Clear,0,2013-09-24 11:55:00
6:15 AM,32.0,30.2,93,30.16,10.0,Calm,Calm,-,N/A,,Clear,0,2013-09-24 12:15:00
6:35 AM,32.0,30.2,93,30.16,10.0,Calm,Calm,-,N/A,,Clear,0,2013-09-24 12:35:00
6:55 AM,32.0,32.0,100,30.16,10.0,Calm,Calm,-,N/A,,Clear,0,2013-09-24 12:55:00
7:15 AM,32.0,32.0,100,30.16,10.0,Calm,Calm,-,N/A,,Clear,0,2013-09-24 13:15:00
7:35 AM,32.0,30.2,93,30.16,10.0,Calm,Calm,-,N/A,,Clear,0,2013-09-24 13:35:00
7:55 AM,33.8,32.0,93,30.16,10.0,ESE,3.5,-,N/A,,Clear,120,2013-09-24 13:55:00
8:15 AM,35.6,33.8,93,30.16,10.0,Calm,Calm,-,N/A,,Clear,0,2013-09-24 14:15:00
8:35 AM,39.2,35.6,87,30.16,10.0,Calm,Calm,-,N/A,,Clear,0,2013-09-24 14:35:00
8:55 AM,41.0,35.6,81,30.15,10.0,Calm,Calm,-,N/A,,Clear,0,2013-09-24 14:55:00
9:15 AM,42.8,35.6,76,30.15,10.0,Calm,Calm,-,N/A,,Clear,0,2013-09-24 15:15:00
9:35 AM,44.6,35.6,71,30.15,10.0,Calm,Calm,-,N/A,,Clear,0,2013-09-24 15:35:00
9:55 AM,46.4,37.4,71,30.14,10.0,Calm,Calm,-,N/A,,Clear,0,2013-09-24 15:55:00
10:15 AM,50.0,35.6,58,30.13,10.0,Calm,Calm,-,N/A,,Clear,0,2013-09-24 16:15:00
10:35 AM,51.8,35.6,54,30.12,10.0,Calm,Calm,-,N/A,,Clear,0,2013-09-24 16:35:00
10:55 AM,53.6,35.6,51,30.11,10.0,Calm,Calm,-,N/A,,Clear,0,2013-09-24 16:55:00
11:15 AM,57.2,35.6,44,30.10,10.0,Calm,Calm,-,N/A,,Clear,0,2013-09-24 17:15:00
11:55 AM,62.6,39.2,42,30.07,10.0,NNW,3.5,-,N/A,,Clear,340,2013-09-24 17:55:00
12:15 PM,64.4,35.6,34,30.05,10.0,West,3.5,-,N/A,,Clear,280,2013-09-24 18:15:00
12:35 PM,69.8,35.6,28,30.03,10.0,WSW,4.6,-,N/A,,Clear,240,2013-09-24 18:35:00
12:55 PM,71.6,30.2,22,30.03,10.0,SW,4.6,-,N/A,,Clear,220,2013-09-24 18:55:00
1:15 PM,73.4,24.8,16,30.01,10.0,South,8.1,17.3,N/A,,Clear,180,2013-09-24 19:15:00
1:35 PM,73.4,23.0,15,30.00,10.0,South,10.4,24.2,N/A,,Clear,190,2013-09-24 19:35:00
1:55 PM,73.4,24.8,16,29.97,10.0,SSE,12.7,19.6,N/A,,Clear,160,2013-09-24 19:55:00
2:15 PM,73.4,26.6,18,29.96,10.0,South,15.0,19.6,N/A,,Clear,170,2013-09-24 20:15:00
2:35 PM,77.0,26.6,16,29.95,10.0,South,9.2,-,N/A,,Clear,180,2013-09-24 20:35:00
2:55 PM,77.0,26.6,16,29.94,10.0,WSW,8.1,17.3,N/A,,Clear,240,2013-09-24 20:55:00
3:15 PM,73.4,24.8,16,29.93,10.0,WSW,15.0,23.0,N/A,,Clear,240,2013-09-24 21:15:00
3:35 PM,75.2,23.0,14,29.92,10.0,SW,16.1,24.2,N/A,,Clear,230,2013-09-24 21:35:00
3:55 PM,77.0,23.0,13,29.91,10.0,SW,16.1,24.2,N/A,,Clear,230,2013-09-24 21:55:00
4:15 PM,75.2,23.0,14,29.90,10.0,WSW,11.5,-,N/A,,Clear,240,2013-09-24 22:15:00
4:35 PM,75.2,21.2,13,29.89,10.0,West,3.5,-,N/A,,Clear,260,2013-09-24 22:35:00
4:55 PM,73.4,21.2,14,29.88,10.0,SSW,8.1,-,N/A,,Clear,200,2013-09-24 22:55:00
5:15 PM,73.4,17.6,12,29.87,10.0,South,11.5,16.1,N/A,,Clear,190,2013-09-24 23:15:00
5:35 PM,71.6,19.4,14,29.87,10.0,SSE,13.8,19.6,N/A,,Clear,160,2013-09-24 23:35:00
5:55 PM,71.6,28.4,20,29.86,10.0,SSE,12.7,20.7,N/A,,Clear,160,2013-09-24 23:55:00
6:15 PM,69.8,28.4,21,29.85,10.0,SSE,11.5,19.6,N/A,,Clear,160,2013-09-25 00:15:00
6:35 PM,71.6,28.4,20,29.85,10.0,South,10.4,-,N/A,,Clear,170,2013-09-25 00:35:00
6:55 PM,69.8,30.2,23,29.84,10.0,SSE,10.4,-,N/A,,Clear,160,2013-09-25 00:55:00
7:15 PM,64.4,33.8,32,29.84,10.0,SE,10.4,-,N/A,,Clear,140,2013-09-25 01:15:00
7:35 PM,64.4,32.0,30,29.83,10.0,SE,10.4,-,N/A,,Clear,140,2013-09-25 01:35:00
7:55 PM,64.4,32.0,30,29.83,10.0,SSE,11.5,-,N/A,,Clear,150,2013-09-25 01:55:00
8:15 PM,64.4,32.0,30,29.83,10.0,SSE,13.8,-,N/A,,Clear,150,2013-09-25 02:15:00
8:35 PM,64.4,32.0,30,29.83,10.0,SSE,9.2,16.1,N/A,,Clear,150,2013-09-25 02:35:00
8:55 PM,64.4,32.0,30,29.84,10.0,SSE,9.2,17.3,N/A,,Clear,160,2013-09-25 02:55:00
9:15 PM,66.2,30.2,26,29.83,10.0,South,12.7,17.3,N/A,,Clear,170,2013-09-25 03:15:00
9:35 PM,64.4,32.0,30,29.83,10.0,SSE,11.5,16.1,N/A,,Clear,160,2013-09-25 03:35:00
9:55 PM,64.4,32.0,30,29.82,10.0,SSE,12.7,18.4,N/A,,Clear,160,2013-09-25 03:55:00
10:15 PM,64.4,32.0,30,29.83,10.0,SSE,9.2,-,N/A,,Clear,160,2013-09-25 04:15:00
10:35 PM,64.4,32.0,30,29.83,10.0,South,9.2,-,N/A,,Clear,170,2013-09-25 04:35:00
10:55 PM,64.4,30.2,28,29.82,10.0,SSE,10.4,-,N/A,,Scattered Clouds,160,2013-09-25 04:55:00
11:15 PM,64.4,28.4,26,29.81,10.0,South,5.8,-,N/A,,Clear,180,2013-09-25 05:15:00
11:35 PM,66.2,26.6,23,29.81,10.0,South,5.8,-,N/A,,Clear,170,2013-09-25 05:35:00
11:55 PM,64.4,28.4,26,29.81,10.0,SSW,4.6,-,N/A,,Clear,200,2013-09-25 05:55:00